Tracking 29892 objects as of 21-Nov-2024
HD Live streaming from Space Station
objects crossing your sky now

METEOR 2-5 DEB

Track METEOR 2-5 DEB now!
10-day predictions


NORAD ID: 38276
Int'l Code: 1979-095BW
Perigee: 780.2 km
Apogee: 804.1 km
Inclination: 81.2 °
Period: 100.6 minutes
Semi major axis: 7163 km
RCS: 0.003 m2 (small)
Launch date: October 31, 1979
Source: Commonwealth of Independent States (former USSR) (CIS)
Launch site: PLESETSK MISSILE AND SPACE COMPLEX (PKMTR)

Note: This is SATELLITE DEBRIS
Your satellite tracking list
Your tracking list is empty




NASA's NSSDC Master Catalog

Two Line Element Set (TLE):
1 38276U 79095BW  24325.07860941  .00015490  00000-0  57500-2 0  9995
2 38276  81.1856 357.1747 0016678 272.7282 117.0632 14.32015691317260
Source of the keplerian elements: AFSPC